Location: Dentlein
(49.1477°N, 10.4231°E)
Time: 20:50:46
(UTC+00:00)

Resurs 1-4 Rocket - Pass Details

Date: 23 May 2024
Orbit: 798 x 813 km, 98.7° (Epoch: 23 June)

Event Time Altitude Azimuth Distance (km) Brightness Sun altitude
Rises 02:05:03 0° 10° (N) 3,320 6.4 -10.6°
Reaches altitude 10° 02:07:27 10° 5° (N) 2,384 5.4 -10.4°
Maximum altitude 02:12:27 46° 293° (WNW) 1,062 2.6 -9.8°
Enters shadow 02:17:06 12° 222° (SW) 2,240 3.7 -9.3°
